Regional Weather Roundup
Issued by NWS

Home | Current Version | Previous Version | Graphics & Text | Print | Product List | Glossary On
Versions: 1 2 3 4 5 6 7 8 9 10 11 12 13 14 15 16 17 18 19 20 21 22 23 24 25 26 27 28 29 30 31 32 33 34 35 36 37 38 39 40 41 42 43 44 45 46 47 48 49
000
ASUS43 KDMX 151407
RWRIA

WEATHER ROUNDUP FOR IOWA
NATIONAL WEATHER SERVICE DES MOINES IA
900 AM CDT MON SEP 15 2014

NOTE: "FAIR" INDICATES FEW OR NO CLOUDS BELOW 12,000 FEET WITH NO
SIGNIFICANT WEATHER AND/OR OBSTRUCTIONS TO VISIBILITY.

* - THESE STATIONS ARE NOT NWS STATIONS...THUS NOT UNDER NWS
QUALITY CONTROL.  THEY ALSO DO NOT REPORT WEATHER SUCH
AS PRECIPITATION OR FOG.

IAZ001>003-012>014-020>022-031>034-043>046-151500-
   NORTHWEST IOWA

CITY           SKY/WX    TMP DP  RH WIND       PRES   REMARKS
CARROLL *      CLOUDY    52  48  87 N18G25    30.16R
CHEROKEE *     CLOUDY    50  50 100 N6        30.21S
DENISON *      CLOUDY    52  48  87 N15G24    30.16R
LE MARS *      CLOUDY    52  48  87 NE8       30.22S
ORANGE CITY *  PTSUNNY   52  48  87 NE6       30.22R
SHELDON *      PTSUNNY   50  50 100 N6        30.21R
SIOUX CITY     CLOUDY    53  47  79 NE13      30.21S
SPENCER        LGT RAIN  50  48  93 NE6       30.21S
STORM LAKE *   CLOUDY    50  50 100 N14G20    30.20R
$$

IAZ055>058-069>071-079>083-090>094-151500-
   SOUTHWEST IOWA

CITY           SKY/WX    TMP DP  RH WIND       PRES   REMARKS
ATLANTIC *     CLOUDY    59  57  94 N12G18    30.11R
AUDUBON *      CLOUDY    54  52  94 N16G23    30.16R
CLARINDA *     PTSUNNY   61  59  94 CALM      30.08F
COUNCIL BLFS * CLOUDY    54  54 100 N15G25    30.13R
CRESTON *      CLOUDY    59  59 100 NE3       30.09R
HARLAN  *      CLOUDY    52  50  93 N17G24    30.18R
LAMONI         CLOUDY    58  56  93 N7        30.07F
SHENANDOAH *     N/A     63  59  88 N5        30.10R
$$

IAZ047>049-059>061-072>074-084-151500-
   CENTRAL IOWA

CITY           SKY/WX    TMP DP  RH WIND       PRES   REMARKS
AMES           CLOUDY    54  52  93 N9        30.11R
ANKENY *       PTSUNNY   61  59  94 NE5       30.08F
CHARITON *     CLOUDY    59  59 100 E6        30.06F FOG
DES MOINES     CLOUDY    62  58  86 NE7       30.07F
GRINNELL*      CLOUDY    59  55  88 CALM      30.09F
KNOXVILLE *    CLOUDY    59  57  94 NE5       30.06F
MARSHALLTOWN   CLOUDY    56  52  86 NE5       30.10R
PELLA *        PTSUNNY   59  57  94 S6        30.08F
PERRY *        CLOUDY    54  52  94 N13       30.12R
$$

IAZ004>006-015-016-023>025-035-036-151500-
   NORTH CENTRAL IOWA

CITY           SKY/WX    TMP DP  RH WIND       PRES   REMARKS
ALGONA *       PTSUNNY   50  50 100 N12       30.20F
CLARION *      DRIZZLE   50  48  93 N13       30.18R
ESTHERVILLE    LGT RAIN  49  48  97 N8        30.20F
FORT DODGE *   CLOUDY    50  46  87 N7        30.19R
MASON CITY     LGT RAIN  50  49  96 N13       30.19S FOG
FOREST CITY *  DRIZZLE   50  50 100 N8        30.19R
IOWA FALLS *   CLOUDY    54  48  82 N13       30.15R
$$

IAZ007>011-017>019-026>030-037>042-050>054-066-151500-
   NORTHEAST IOWA

CITY           SKY/WX    TMP DP  RH WIND       PRES   REMARKS
CEDAR RAPIDS   MOSUNNY   57  55  93 S5        30.09R
CHARLES CITY * HVY RAIN  50  48  93 N8G14     30.17R
CLINTON *      CLOUDY    54  52  94 E5        30.12F
DECORAH *      CLOUDY    50  48  93 N7        30.13S
DUBUQUE        MOSUNNY   57  50  77 CALM      30.11F
MONTICELLO *   CLOUDY    57  52  82 N5        30.10R
OELWEIN *      CLOUDY    54  50  87 NE10      30.13R
WATERLOO       CLOUDY    54  50  86 NE6       30.11R
$$

IAZ064-065-067-068-078-151500-
   EAST CENTRAL IOWA

CITY           SKY/WX    TMP DP  RH WIND       PRES   REMARKS
DAVENPORT      CLOUDY    56  52  86 SE7       30.10F
IOWA CITY      CLOUDY    57  55  93 CALM      30.09F
MT. PLEASANT * RAIN      55  54  94 E6        30.06F
MUSCATINE *    CLOUDY    57  54  88 E5        30.09S
QUAD CITIES    CLOUDY    56  52  86 E6        30.09F
$$

IAZ062-063-075>077-085>089-095>099-151500-
   SOUTHEAST IOWA

CITY           SKY/WX    TMP DP  RH WIND       PRES   REMARKS
BURLINGTON     CLOUDY    56  56 100 NE5       30.08F
FAIRFIELD *    CLOUDY    57  55  94 N5        30.07F
FORT MADISON * LGT RAIN  57  55  94 E3        30.06F
KEOKUK *       CLOUDY    57  55  94 NE5       30.07F
OSKALOOSA *    CLOUDY    57  55  94 CALM      30.09R
CENTERVILLE *  LGT RAIN  55  55 100 N5        30.10R
OTTUMWA        LGT RAIN  57  56  96 NE5       30.06S FOG
WASHINGTON *   CLOUDY    55  55 100 CALM      30.08F
$$

ABBREVIATIONS USED IN REMARKS
   TC - TEMPERATURES IN CELSIUS
  WCI - WIND CHILL INDEX
   HX - HEAT INDEX
  VSB - VISIBILITY
$$




USA.gov is the U.S. government's official web portal to all federal, state and local government web resources and services.